GW1585 Weather Reports


time (UTC)temp
F
wind
direction
speed
knots
gust
knots
rain 1hr
in
rain 24hr
in
rain mn
in
humidity
%
barometer
mb
20260507014621 48 158 0.0 0.9 0.00 0.00 0.00 81 1015.4
20260507013101 48 0 0.0 1.7 0.00 0.00 0.00 81 1015.5
20260507011600 48 0 0.0 1.7 0.00 0.00 0.00 80 1015.5
20260507010058 48 0 0.0 2.6 0.00 0.00 0.00 81 1015.5
20260507004552 48 286 0.0 1.7 0.00 0.00 0.00 80 1015.3
20260507003055 48 0 0.0 0.9 0.00 0.00 0.00 80 1015.4
20260507001606 48 191 0.0 0.9 0.00 0.00 0.00 79 1015.3
20260507000127 49 0 0.0 1.7 0.00 0.00 0.00 79 1015.5
20260506234625 49 0 0.0 1.7 0.00 0.00 0.00 79 1015.5
20260506233059 49 257 0.0 1.7 0.00 0.00 0.00 79 1015.5
20260506231556 49 0 0.0 1.7 0.00 0.00 0.00 78 1015.6
20260506230103 49 39 0.0 2.6 0.00 0.00 0.00 78 1015.6
20260506224556 49 0 0.0 1.7 0.00 0.00 0.00 79 1015.4
20260506223100 49 0 0.0 2.6 0.00 0.00 0.00 78 1015.2
20260506221603 49 0 0.0 1.7 0.00 0.00 0.00 78 1015.2
20260506220056 49 204 0.0 1.7 0.00 0.00 0.00 78 1015.1
20260506214600 49 232 0.0 3.5 0.00 0.00 0.00 77 1015.0
20260506213059 49 301 0.0 2.6 0.00 0.00 0.00 78 1014.9
20260506211556 50 0 0.9 3.5 0.00 0.00 0.00 78 1014.9
20260506210058 50 0 0.0 2.6 0.00 0.00 0.00 78 1015.0
20260506204556 50 257 0.0 3.5 0.00 0.00 0.00 78 1015.0
20260506203058 50 302 0.9 3.5 0.00 0.00 0.00 78 1015.0
20260506201555 50 233 0.0 3.5 0.00 0.00 0.00 79 1015.0
20260506200055 50 319 0.0 4.3 0.00 0.00 0.00 79 1014.8
20260506194556 50 82 0.0 0.9 0.00 0.00 0.00 79 1014.6
20260506193059 50 0 0.9 4.3 0.00 0.00 0.00 79 1014.5
20260506191604 50 258 0.9 3.5 0.00 0.00 0.00 79 1014.3
20260506190055 51 61 0.0 2.6 0.00 0.00 0.00 79 1014.1
20260506184558 51 0 0.0 1.7 0.00 0.00 0.00 79 1014.0
20260506183106 51 269 0.0 1.7 0.00 0.00 0.00 78 1013.9
20260506181604 51 310 0.0 1.7 0.00 0.00 0.00 78 1013.7
20260506180059 52 0 0.0 2.6 0.00 0.00 0.00 78 1013.7
20260506174600 52 0 0.0 4.3 0.00 0.00 0.00 77 1013.6
20260506173123 52 313 0.9 2.6 0.00 0.00 0.00 77 1013.4
20260506171610 52 323 0.9 3.5 0.00 0.00 0.00 78 1013.3
20260506170112 52 325 0.9 3.5 0.00 0.00 0.00 77 1013.4
20260506164559 53 201 0.9 3.5 0.00 0.00 0.00 76 1013.4
20260506163059 53 0 0.9 3.5 0.00 0.00 0.00 76 1013.4
20260506161559 53 265 0.9 3.5 0.00 0.00 0.00 75 1013.4
20260506160055 53 143 0.0 4.3 0.00 0.00 0.00 75 1013.4
20260506154612 53 279 0.0 5.2 0.00 0.00 0.00 75 1013.5
20260506153056 53 262 0.9 3.5 0.00 0.00 0.00 74 1013.5
20260506151558 54 12 0.9 4.3 0.00 0.00 0.00 73 1013.3
20260506150057 54 264 1.7 4.3 0.00 0.00 0.00 73 1013.3
20260506144606 54 1 0.9 3.5 0.00 0.00 0.00 73 1013.3
20260506143055 55 131 0.9 3.5 0.00 0.00 0.00 72 1013.4
20260506141601 55 326 0.9 5.2 0.00 0.00 0.00 71 1013.3
20260506140058 56 360 0.9 5.2 0.00 0.00 0.00 72 1013.4
20260506134556 56 332 0.9 5.2 0.00 0.00 0.00 71 1013.3
20260506133116 56 0 0.0 4.3 0.00 0.00 0.00 74 1013.3
20260506131555 56 329 0.9 3.5 0.00 0.00 0.00 70 1013.2
20260506130120 56 52 0.9 3.5 0.00 0.00 0.00 73 1013.1
20260506124559 55 188 0.0 2.6 0.00 0.00 0.00 75 1013.1
20260506123054 54 252 1.7 5.2 0.00 0.00 0.00 75 1013.1
20260506121555 54 320 0.0 6.1 0.00 0.00 0.00 75 1013.1
20260506120058 54 101 0.0 3.5 0.00 0.00 0.00 75 1013.1
20260506114604 54 335 1.7 4.3 0.00 0.00 0.00 76 1013.1
20260506113055 55 40 0.0 3.5 0.00 0.00 0.00 74 1013.0
20260506111553 54 96 0.0 5.2 0.00 0.00 0.00 75 1013.0
20260506110054 54 15 0.9 4.3 0.00 0.00 0.00 76 1012.9
20260506104623 54 0 0.0 2.6 0.00 0.00 0.00 76 1013.1
20260506103055 53 0 0.0 1.7 0.00 0.00 0.00 77 1012.9
20260506101557 53 272 0.0 1.7 0.00 0.00 0.00 77 1012.9
20260506100054 53 0 0.9 3.5 0.00 0.00 0.00 78 1013.0
20260506094556 52 329 0.9 4.3 0.00 0.00 0.00 79 1012.8
20260506093059 51 0 0.9 5.2 0.00 0.00 0.00 80 1012.8
20260506091556 51 66 0.9 4.3 0.00 0.00 0.00 79 1012.7
20260506090055 51 0 0.9 5.2 0.00 0.00 0.00 80 1012.6
20260506084555 51 51 0.9 4.3 0.00 0.00 0.00 79 1012.4
20260506083055 51 106 1.7 5.2 0.00 0.00 0.00 79 1012.3
20260506081600 50 18 0.9 2.6 0.00 0.00 0.00 80 1012.2
20260506080111 50 0 0.9 4.3 0.00 0.00 0.00 80 1012.1
20260506073057 49 349 1.7 5.2 0.00 0.00 0.00 81 1012.2
20260506071621 49 345 0.0 6.1 0.00 0.00 0.00 82 1012.2
20260506061556 49 350 0.0 4.3 0.00 0.00 0.00 81 1011.9
20260506044612 48 329 0.9 4.3 0.00 0.00 0.00 83 1011.6
20260506043059 48 332 0.9 4.3 0.00 0.00 0.00 83 1011.7
20260506041558 48 360 0.0 4.3 0.00 0.00 0.00 83 1011.7
20260506040059 48 286 0.0 2.6 0.00 0.00 0.00 83 1011.8
20260506034601 48 0 0.0 1.7 0.00 0.00 0.00 83 1011.9
20260506033055 49 129 0.0 1.7 0.00 0.00 0.00 83 1012.1
20260506031559 49 0 0.0 2.6 0.00 0.00 0.00 83 1012.2
20260506030056 49 0 0.0 1.7 0.00 0.00 0.00 82 1012.2
20260506024555 49 309 0.0 5.2 0.00 0.00 0.00 82 1012.3
20260506023055 50 139 0.9 5.2 0.00 0.00 0.00 81 1012.2
20260506021558 50 136 0.9 3.5 0.00 0.00 0.00 81 1012.4
20260506020055 50 117 0.9 4.3 0.00 0.00 0.00 79 1012.4